This is the latest recevied weather packets stored in our database for station/object IU0KRR-10. If no packets are shown the sender has not sent any weather packets the latest 10 day(s).
| Time | Temp. | Humidity | Pressure | Rain* | Wind** | Luminosity | Snow |
|---|---|---|---|---|---|---|---|
| 1787925187 | 31.67° C | 30% | 877.4 hPa | - | - | - | - |
| 1787925042 | 31.11° C | 31% | 877.1 hPa | - | - | - | - |
| 1787925021 | 31.67° C | 29% | 877.4 hPa | - | - | - | - |
| 1787924896 | 31.67° C | 31% | 877.5 hPa | - | - | - | - |
| 1787924772 | 31.11° C | 30% | 877.5 hPa | - | - | - | - |
| 1787924715 | 31.11° C | 30% | 877.7 hPa | - | - | - | - |
| 1787924141 | 31.67° C | 29% | 877.1 hPa | - | - | - | - |
| 1787923240 | 31.67° C | 29% | 877.3 hPa | - | - | - | - |
| 1787922340 | 31.67° C | 28% | 877.3 hPa | - | - | - | - |
| 1787921440 | 31.67° C | 30% | 877.4 hPa | - | - | - | - |
| 1787920539 | 31.67° C | 29% | 877.4 hPa | - | - | - | - |
| 1787919638 | 31.67° C | 31% | 877.5 hPa | - | - | - | - |
| 1787919159 | 31.11° C | 28% | 877.8 hPa | - | - | - | - |
| 1787918738 | 31.11° C | 30% | 877.5 hPa | - | - | - | - |
| 1787917837 | 31.11° C | 30% | 877.7 hPa | - | - | - | - |
| 1787916936 | 31.11° C | 28% | 877.8 hPa | - | - | - | - |
| 1787916035 | 30.56° C | 28% | 877.7 hPa | - | - | - | - |
| 1787915172 | 30.56° C | 29% | 877.7 hPa | - | - | - | - |
| 1787915134 | 30.56° C | 29% | 877.7 hPa | - | - | - | - |
| 1787914234 | 30.56° C | 29% | 877.8 hPa | - | - | - | - |
| 1787913417 | 30.56° C | 28% | 878 hPa | - | - | - | - |
| 1787913334 | 30.56° C | 28% | 878 hPa | - | - | - | - |
| 1787912489 | 30° C | 28% | 878.2 hPa | - | - | - | - |
| 1787912433 | 30° C | 28% | 878.2 hPa | - | - | - | - |
| 1787911532 | 30° C | 28% | 878.4 hPa | - | - | - | - |
* Rain since midnight (hover to see other rain measurements)
** Current wind speed in m/s (hover to see current wind gust speed)